Simultaneous Nadir Overpasses (SNOs) Predictions

Prediction of SNOs between GOES-17 and TERRA Satellite Orbit:

Table of predicted SNOs for the next 14.0 days since TLE Epoch: 1/29/2022
Index Date Time (GOES-17) GOES-17 Lat,Lon TERRA Lat,Lon Distance(km) Time Diff (sec)
1 01/30/2022 07:14:56 -0.00,-137.21 0.82,-133.40 433.40 80
2 01/30/2022 19:38:51 0.01,-137.22 0.26,-138.56 152.33 80
3 02/01/2022 19:23:56 0.02,-137.21 -0.31,-135.60 183.12 80
4 02/02/2022 07:48:00 -0.02,-137.20 -0.76,-140.80 408.39 80
5 02/04/2022 07:35:45 -0.03,-137.19 -0.18,-137.83 73.21 80
6 02/06/2022 07:20:51 -0.03,-137.18 0.47,-134.88 261.68 80
7 02/06/2022 19:43:35 0.03,-137.18 0.62,-140.04 324.30 9
8 02/08/2022 19:32:31 0.02,-137.17 0.03,-137.07 10.17 80
9 02/10/2022 19:20:17 0.01,-137.14 -0.63,-134.12 343.09 80
10 02/11/2022 07:39:00 -0.00,-137.12 -0.49,-139.31 249.30 80
